EW5239 Weather Reports


time (UTC)temp
C
wind
direction
speed
KPH
gust
KPH
rain 1hr
cm
rain 24hr
cm
rain mn
cm
humidity
%
barometer
mb
20260502130506 23 199 6.4 8.0 0.00 0.00 0.00 31 1020.2
20260502130133 23 185 4.8 8.0 0.00 0.00 0.00 27 1021.8
20260502123625 23 312 8.0 12.9 0.00 0.00 0.00 27 1022.1
20260502123506 22 319 8.0 12.9 0.00 0.00 0.00 30 1020.5
20260502123006 22 284 6.4 9.7 0.00 0.00 0.00 31 1020.5
20260502122625 23 316 6.4 9.7 0.00 0.00 0.00 28 1022.2
20260502122125 23 36 6.4 9.7 0.00 0.00 0.00 28 1022.2
20260502122006 22 352 4.8 8.0 0.00 0.00 0.00 31 1020.8
20260502121625 22 105 6.4 8.0 0.00 0.00 0.00 27 1022.0
20260502121506 22 186 6.4 12.9 0.00 0.00 0.00 30 1020.7
20260502121125 23 48 8.0 11.3 0.00 0.00 0.00 28 1022.2
20260502120625 23 353 9.7 11.3 0.00 0.00 0.00 27 1022.5
20260502120506 22 277 9.7 12.9 0.00 0.00 0.00 31 1020.9
20260502120130 23 325 6.4 11.3 0.00 0.00 0.00 28 1022.4
20260502115625 23 283 4.8 8.0 0.00 0.00 0.00 29 1022.5
20260502115505 22 244 6.4 11.3 0.00 0.00 0.00 31 1020.9
20260502115125 23 269 6.4 11.3 0.00 0.00 0.00 29 1022.5
20260502115006 22 272 6.4 11.3 0.00 0.00 0.00 32 1021.0
20260502114506 22 309 6.4 12.9 0.00 0.00 0.00 31 1021.1
20260502114125 23 302 6.4 12.9 0.00 0.00 0.00 27 1022.8
20260502114006 22 287 8.0 14.5 0.00 0.00 0.00 31 1021.2
20260502113625 23 272 6.4 12.9 0.00 0.00 0.00 30 1022.9
20260502113506 22 263 6.4 14.5 0.00 0.00 0.00 32 1021.3
20260502113125 22 95 4.8 8.0 0.00 0.00 0.00 31 1022.7
20260502113006 22 93 6.4 8.0 0.00 0.00 0.00 32 1021.2
20260502112625 22 95 6.4 12.9 0.00 0.00 0.00 29 1022.9
20260502112125 22 97 8.0 12.9 0.00 0.00 0.00 30 1023.0
20260502112005 22 65 8.0 12.9 0.00 0.00 0.00 32 1021.3
20260502111625 22 55 6.4 11.3 0.00 0.00 0.00 28 1022.9
20260502111505 22 8 6.4 12.9 0.00 0.00 0.00 32 1021.4
20260502111125 22 347 6.4 12.9 0.00 0.00 0.00 28 1023.1
20260502111006 22 318 8.0 11.3 0.00 0.00 0.00 31 1021.5
20260502110625 22 309 9.7 12.9 0.00 0.00 0.00 29 1023.1
20260502110505 22 312 8.0 11.3 0.00 0.00 0.00 32 1021.6
20260502110131 22 302 6.4 12.9 0.00 0.00 0.00 31 1023.2
20260502110006 22 350 6.4 11.3 0.00 0.00 0.00 32 1021.7
20260502105625 22 78 6.4 9.7 0.00 0.00 0.00 31 1023.2
20260502105505 21 91 6.4 11.3 0.00 0.00 0.00 34 1021.7
20260502105125 22 51 6.4 9.7 0.00 0.00 0.00 31 1023.1
20260502105006 21 358 6.4 9.7 0.00 0.00 0.00 33 1021.6
20260502104625 22 14 8.0 12.9 0.00 0.00 0.00 31 1023.5
20260502104506 22 327 8.0 12.9 0.00 0.00 0.00 32 1021.8
20260502104125 22 15 8.0 12.9 0.00 0.00 0.00 29 1023.5
20260502104005 22 339 9.7 12.9 0.00 0.00 0.00 32 1021.9
20260502103625 22 15 8.0 12.9 0.00 0.00 0.00 30 1023.6
20260502103506 21 357 6.4 12.9 0.00 0.00 0.00 33 1021.8
20260502103125 22 72 4.8 9.7 0.00 0.00 0.00 31 1023.6
20260502102625 22 44 4.8 11.3 0.00 0.00 0.00 31 1023.6
20260502102505 21 36 6.4 12.9 0.00 0.00 0.00 34 1022.1
20260502102125 22 14 8.0 12.9 0.00 0.00 0.00 30 1023.7
20260502102006 21 341 8.0 12.9 0.00 0.00 0.00 33 1022.3
20260502101506 21 328 8.0 12.9 0.00 0.00 0.00 34 1022.1
20260502101125 22 341 8.0 11.3 0.00 0.00 0.00 32 1023.6
20260502101005 21 321 8.0 9.7 0.00 0.00 0.00 35 1022.3
20260502100625 21 330 9.7 12.9 0.00 0.00 0.00 32 1024.0
20260502100506 21 307 9.7 12.9 0.00 0.00 0.00 35 1022.3
20260502100131 21 324 6.4 12.9 0.00 0.00 0.00 33 1024.1
20260502091506 20 191 6.4 8.0 0.00 0.00 0.00 37 1022.9
20260502091125 21 159 8.0 12.9 0.00 0.00 0.00 34 1024.4
20260502091006 20 168 8.0 12.9 0.00 0.00 0.00 38 1022.9
20260502090625 20 181 8.0 14.5 0.00 0.00 0.00 34 1024.3
20260502090505 20 178 9.7 16.1 0.00 0.00 0.00 37 1022.8
20260502090131 21 184 8.0 14.5 0.00 0.00 0.00 35 1024.5
20260502071505 17 221 8.0 11.3 0.00 0.00 0.00 49 1023.1
20260502071125 17 218 6.4 11.3 0.00 0.00 0.00 45 1024.8
20260502071006 17 205 6.4 11.3 0.00 0.00 0.00 50 1023.1
20260502070625 16 237 6.4 8.0 0.00 0.00 0.00 48 1024.8
20260502070505 17 210 6.4 9.7 0.00 0.00 0.00 50 1023.1
20260502070132 16 226 6.4 6.4 0.00 0.00 0.00 48 1024.9
20260502065625 16 206 4.8 8.0 0.00 0.00 0.00 52 1024.6
20260502065506 16 241 6.4 8.0 0.00 0.00 0.00 54 1023.1
20260502065125 16 195 6.4 8.0 0.00 0.00 0.00 53 1024.7
20260502065005 16 196 6.4 8.0 0.00 0.00 0.00 54 1023.1
20260502064625 15 176 6.4 8.0 0.00 0.00 0.00 53 1024.7
20260502064505 16 172 6.4 8.0 0.00 0.00 0.00 54 1023.0
20260502064125 15 174 6.4 8.0 0.00 0.00 0.00 54 1025.0
20260502064006 16 173 4.8 8.0 0.00 0.00 0.00 55 1023.2
20260502063625 15 181 4.8 8.0 0.00 0.00 0.00 55 1025.0
20260502063505 15 175 4.8 8.0 0.00 0.00 0.00 57 1023.2
20260502063125 15 188 4.8 6.4 0.00 0.00 0.00 56 1024.9
20260502062625 15 222 4.8 8.0 0.00 0.00 0.00 59 1024.7
20260502062506 15 221 6.4 6.4 0.00 0.00 0.00 59 1023.2
20260502062125 14 228 4.8 8.0 0.00 0.00 0.00 63 1024.7
20260502062005 15 227 4.8 6.4 0.00 0.00 0.00 63 1023.1
20260502061125 13 189 3.2 4.8 0.00 0.00 0.00 73 1024.8
20260502061006 15 190 1.6 4.8 0.00 0.00 0.00 68 1023.2
20260502060006 13 224 3.2 4.8 0.00 0.00 0.00 74 1023.1
20260502055625 12 233 3.2 3.2 0.00 0.00 0.00 81 1024.7
20260502055506 13 233 3.2 4.8 0.00 0.00 0.00 76 1022.9
20260502055125 11 235 3.2 3.2 0.00 0.00 0.00 84 1024.8
20260502055005 12 250 1.6 4.8 0.00 0.00 0.00 79 1022.9
20260502054505 11 270 0.0 3.2 0.00 0.00 0.00 81 1023.1
20260502054125 10 205 1.6 3.2 0.00 0.00 0.00 88 1025.0
20260502054006 11 0 0.0 0.0 0.00 0.00 0.00 82 1023.1
20260502053625 10 193 1.6 3.2 0.00 0.00 0.00 89 1024.8
20260502053506 10 0 0.0 0.0 0.00 0.00 0.00 84 1023.1
20260502053005 10 0 0.0 0.0 0.00 0.00 0.00 85 1023.0
20260502052506 9 0 0.0 0.0 0.00 0.00 0.00 87 1023.0
20260502052125 8 270 1.6 3.2 0.00 0.00 0.00 95 1025.0
20260502051625 8 242 1.6 3.2 0.00 0.00 0.00 96 1024.7
20260502051506 8 0 0.0 0.0 0.00 0.00 0.00 90 1023.0
20260502051125 8 168 1.6 3.2 0.00 0.00 0.00 97 1024.9
20260502051006 8 0 0.0 0.0 0.00 0.00 0.00 91 1022.9
20260502050625 7 139 0.0 3.2 0.00 0.00 0.00 97 1024.9
20260502050505 7 0 0.0 0.0 0.00 0.00 0.00 92 1022.8
20260502050131 7 143 0.0 3.2 0.00 0.00 0.00 97 1024.8
20260502050006 6 0 0.0 0.0 0.00 0.00 0.00 93 1023.0
20260502045626 6 163 0.0 1.6 0.00 0.00 0.00 98 1024.8
20260502045505 5 0 0.0 0.0 0.00 0.00 0.00 93 1022.9
20260502045124 6 0 0.0 0.0 0.00 0.00 0.00 99 1024.8
20260502045006 5 0 0.0 0.0 0.00 0.00 0.00 93 1022.8
20260502044125 4 0 0.0 0.0 0.00 0.00 0.00 99 1024.8
20260502044005 4 0 0.0 0.0 0.00 0.00 0.00 94 1022.7
20260502043625 3 0 0.0 0.0 0.00 0.00 0.00 99 1024.7
20260502043506 4 0 0.0 0.0 0.00 0.00 0.00 94 1022.8
20260502043125 3 0 0.0 0.0 0.00 0.00 0.00 99 1024.6
20260502043006 3 0 0.0 0.0 0.00 0.00 0.00 94 1022.8
20260502042625 3 0 0.0 0.0 0.00 0.00 0.00 99 1025.0
20260502042505 3 0 0.0 0.0 0.00 0.00 0.00 94 1022.6
20260502042125 2 0 0.0 0.0 0.00 0.00 0.00 98 1024.7
20260502042006 3 0 0.0 0.0 0.00 0.00 0.00 94 1022.5
20260502041505 3 0 0.0 0.0 0.00 0.00 0.00 93 1022.5
20260502041125 2 135 0.0 1.6 0.00 0.00 0.00 94 1024.7
20260502040625 2 135 0.0 1.6 0.00 0.00 0.00 93 1024.7
20260502040506 3 0 0.0 0.0 0.00 0.00 0.00 92 1022.3
20260502040130 2 0 0.0 0.0 0.00 0.00 0.00 93 1024.7
20260502040006 3 0 0.0 0.0 0.00 0.00 0.00 92 1022.3
20260502035505 2 0 0.0 0.0 0.00 0.00 0.00 92 1022.4
20260502035125 2 0 0.0 0.0 0.00 0.00 0.00 93 1024.5
20260502035006 2 0 0.0 0.0 0.00 0.00 0.00 88 1022.3
20260502034625 2 0 0.0 0.0 0.00 0.00 0.00 92 1024.7
20260502034506 2 0 0.0 0.0 0.00 0.00 0.00 88 1022.4
20260502034125 2 0 0.0 0.0 0.00 0.00 0.00 92 1024.7
20260502034005 2 0 0.0 0.0 0.00 0.00 0.00 87 1022.5
20260502033506 2 0 0.0 0.0 0.00 0.00 0.00 87 1022.4
20260502033125 2 0 0.0 0.0 0.00 0.00 0.00 92 1024.9
20260502033005 2 0 0.0 0.0 0.00 0.00 0.00 87 1022.5
20260502032625 2 0 0.0 0.0 0.00 0.00 0.00 92 1024.6
20260502032125 2 0 0.0 0.0 0.00 0.00 0.00 92 1024.6
20260502032006 2 0 0.0 0.0 0.00 0.00 0.00 91 1022.4
20260502031625 2 0 0.0 0.0 0.00 0.00 0.00 92 1024.6
20260502031125 2 0 0.0 0.0 0.00 0.00 0.00 91 1024.7
20260502030625 2 0 0.0 0.0 0.00 0.00 0.00 91 1024.7
20260502030506 3 0 0.0 0.0 0.00 0.00 0.00 90 1022.4
20260502030131 2 0 0.0 0.0 0.00 0.00 0.00 91 1024.7
20260502030005 3 0 0.0 0.0 0.00 0.00 0.00 90 1022.5
20260502025625 2 0 0.0 0.0 0.00 0.00 0.00 91 1024.7
20260502025506 3 0 0.0 0.0 0.00 0.00 0.00 90 1022.5
20260502025125 2 0 0.0 0.0 0.00 0.00 0.00 91 1024.8
20260502025005 3 0 0.0 0.0 0.00 0.00 0.00 90 1022.5
20260502024625 2 0 0.0 0.0 0.00 0.00 0.00 91 1024.6
20260502024505 3 0 0.0 0.0 0.00 0.00 0.00 90 1022.6
20260502024125 2 0 0.0 0.0 0.00 0.00 0.00 91 1024.8
20260502023625 2 0 0.0 0.0 0.00 0.00 0.00 91 1024.6
20260502023506 3 0 0.0 0.0 0.00 0.00 0.00 89 1022.6
20260502023005 3 0 0.0 0.0 0.00 0.00 0.00 89 1022.4
20260502022625 2 0 0.0 0.0 0.00 0.00 0.00 91 1024.8
20260502022506 3 0 0.0 0.0 0.00 0.00 0.00 89 1022.5
20260502022126 2 0 0.0 0.0 0.00 0.00 0.00 91 1024.9
20260502021625 2 0 0.0 0.0 0.00 0.00 0.00 94 1024.8
20260502021505 3 0 0.0 0.0 0.00 0.00 0.00 89 1022.6
20260502021125 3 0 0.0 0.0 0.00 0.00 0.00 94 1024.9
20260502021006 3 0 0.0 0.0 0.00 0.00 0.00 88 1022.7
20260502020625 3 0 0.0 0.0 0.00 0.00 0.00 94 1025.0
20260502020505 4 0 0.0 0.0 0.00 0.00 0.00 88 1022.6
20260502020131 3 0 0.0 0.0 0.00 0.00 0.00 94 1024.7
20260502020006 4 0 0.0 0.0 0.00 0.00 0.00 88 1022.6
20260502015625 3 0 0.0 0.0 0.00 0.00 0.00 94 1024.9
20260502015506 4 0 0.0 0.0 0.00 0.00 0.00 88 1022.6
20260502015005 4 0 0.0 0.0 0.00 0.00 0.00 88 1022.5
20260502014625 3 0 0.0 0.0 0.00 0.00 0.00 94 1024.7
20260502013625 3 0 0.0 0.0 0.00 0.00 0.00 94 1024.8
20260502013505 4 0 0.0 0.0 0.00 0.00 0.00 87 1022.8
20260502013125 3 0 0.0 0.0 0.00 0.00 0.00 94 1024.8
20260502012625 3 0 0.0 0.0 0.00 0.00 0.00 94 1024.8
20260502012126 3 0 0.0 0.0 0.00 0.00 0.00 94 1024.7
20260502011625 3 0 0.0 0.0 0.00 0.00 0.00 93 1024.9
20260502011505 5 0 0.0 0.0 0.00 0.00 0.00 87 1022.7
20260502011125 3 0 0.0 0.0 0.00 0.00 0.00 93 1024.9
20260502011006 5 0 0.0 0.0 0.00 0.00 0.00 87 1022.6
20260502010505 5 0 0.0 0.0 0.00 0.00 0.00 88 1022.5
20260502010131 3 131 1.6 3.2 0.00 0.00 0.00 93 1024.6
20260502010005 4 0 0.0 0.0 0.00 0.00 0.00 87 1022.7
20260502005625 3 130 0.0 3.2 0.00 0.00 0.00 92 1024.9
20260502005506 4 0 0.0 0.0 0.00 0.00 0.00 87 1022.7
20260502005005 4 0 0.0 0.0 0.00 0.00 0.00 87 1022.6
20260502004625 3 0 0.0 0.0 0.00 0.00 0.00 92 1024.7
20260502004505 4 0 0.0 0.0 0.00 0.00 0.00 87 1022.6
20260502004006 4 0 0.0 0.0 0.00 0.00 0.00 87 1022.6
20260502003626 3 270 0.0 1.6 0.00 0.00 0.00 91 1024.8
20260502003505 4 0 0.0 0.0 0.00 0.00 0.00 86 1022.6
20260502003125 3 270 0.0 1.6 0.00 0.00 0.00 91 1024.8
20260502003005 4 0 0.0 0.0 0.00 0.00 0.00 86 1022.6
20260502002625 3 0 0.0 0.0 0.00 0.00 0.00 90 1024.8
20260502002126 3 270 0.0 1.6 0.00 0.00 0.00 89 1024.7
20260502002006 5 0 0.0 0.0 0.00 0.00 0.00 86 1022.6
20260502001625 3 270 0.0 1.6 0.00 0.00 0.00 89 1024.7
20260502001506 5 0 0.0 0.0 0.00 0.00 0.00 85 1022.6
20260502001005 5 0 0.0 0.0 0.00 0.00 0.00 84 1022.7
20260502000625 4 270 0.0 1.6 0.00 0.00 0.00 89 1024.8
20260502000505 5 0 0.0 0.0 0.00 0.00 0.00 84 1022.7
20260502000131 4 270 0.0 1.6 0.00 0.00 0.00 88 1024.8
20260502000006 5 0 0.0 0.0 0.00 0.00 0.00 84 1022.6
20260501235625 5 0 0.0 0.0 0.00 0.00 0.00 88 1024.7
20260501235505 5 0 0.0 0.0 0.00 0.00 0.00 84 1022.6
20260501235006 5 0 0.0 0.0 0.00 0.00 0.00 84 1022.6
20260501234625 5 135 0.0 1.6 0.00 0.00 0.00 87 1024.8
20260501234505 6 0 0.0 0.0 0.00 0.00 0.00 84 1022.6
20260501234125 5 135 0.0 1.6 0.00 0.00 0.00 87 1024.9
20260501234005 6 0 0.0 0.0 0.00 0.00 0.00 84 1022.6
20260501233625 5 135 0.0 1.6 0.00 0.00 0.00 87 1024.5
20260501233506 6 0 0.0 0.0 0.00 0.00 0.00 84 1022.6
20260501232505 5 0 0.0 0.0 0.00 0.00 0.00 84 1022.7
20260501232126 5 0 0.0 0.0 0.00 0.00 0.00 86 1024.8
20260501232006 5 0 0.0 0.0 0.00 0.00 0.00 83 1022.7
20260501231625 5 0 0.0 0.0 0.00 0.00 0.00 86 1024.7
20260501231505 5 0 0.0 0.0 0.00 0.00 0.00 83 1022.9
20260501231005 6 0 0.0 0.0 0.00 0.00 0.00 83 1022.9
20260501230131 5 0 0.0 0.0 0.00 0.00 0.00 85 1024.8
20260501230006 6 0 0.0 0.0 0.00 0.00 0.00 82 1022.9
20260501225625 5 0 0.0 0.0 0.00 0.00 0.00 84 1024.7
20260501225125 5 0 0.0 0.0 0.00 0.00 0.00 84 1025.0
20260501225006 6 0 0.0 0.0 0.00 0.00 0.00 81 1022.9
20260501224625 5 0 0.0 0.0 0.00 0.00 0.00 84 1024.8
20260501224505 6 0 0.0 0.0 0.00 0.00 0.00 81 1023.0
20260501224126 5 0 0.0 0.0 0.00 0.00 0.00 84 1024.8
20260501224006 6 0 0.0 0.0 0.00 0.00 0.00 80 1022.9
20260501223626 6 0 0.0 0.0 0.00 0.00 0.00 84 1024.6
20260501223506 6 0 0.0 0.0 0.00 0.00 0.00 80 1023.0
20260501223005 7 0 0.0 0.0 0.00 0.00 0.00 79 1022.8
20260501222625 6 0 0.0 0.0 0.00 0.00 0.00 83 1024.8
20260501222505 7 0 0.0 0.0 0.00 0.00 0.00 80 1023.0
20260501222125 6 135 0.0 1.6 0.00 0.00 0.00 83 1024.7
20260501222006 7 0 0.0 0.0 0.00 0.00 0.00 80 1022.9
20260501221625 6 135 0.0 1.6 0.00 0.00 0.00 83 1024.9
20260501221505 7 0 0.0 0.0 0.00 0.00 0.00 80 1022.8
20260501221125 6 135 0.0 1.6 0.00 0.00 0.00 83 1024.9
20260501221005 7 0 0.0 0.0 0.00 0.00 0.00 80 1022.9
20260501220625 6 200 0.0 1.6 0.00 0.00 0.00 82 1024.8
20260501220506 6 0 0.0 0.0 0.00 0.00 0.00 79 1022.8
20260501220132 6 208 0.0 1.6 0.00 0.00 0.00 82 1024.8
20260501215125 6 0 0.0 0.0 0.00 0.00 0.00 80 1025.0
20260501215006 7 0 0.0 0.0 0.00 0.00 0.00 76 1023.0
20260501214625 6 0 0.0 0.0 0.00 0.00 0.00 80 1024.9
20260501214506 7 0 0.0 0.0 0.00 0.00 0.00 76 1023.1
20260501214005 7 0 0.0 0.0 0.00 0.00 0.00 75 1022.9
20260501213625 7 0 0.0 0.0 0.00 0.00 0.00 78 1024.9
20260501213506 7 0 0.0 0.0 0.00 0.00 0.00 75 1023.1
20260501213125 7 0 0.0 0.0 0.00 0.00 0.00 78 1025.0
20260501213005 8 0 0.0 0.0 0.00 0.00 0.00 75 1022.9
20260501212505 8 0 0.0 0.0 0.00 0.00 0.00 75 1022.8
20260501212125 7 0 0.0 0.0 0.00 0.00 0.00 77 1024.9
20260501211625 7 0 0.0 0.0 0.00 0.00 0.00 76 1024.9
20260501211505 8 0 0.0 0.0 0.00 0.00 0.00 75 1022.9
20260501211125 7 0 0.0 0.0 0.00 0.00 0.00 76 1024.7
20260501211006 8 0 0.0 0.0 0.00 0.00 0.00 74 1022.9
20260501210506 8 0 0.0 0.0 0.00 0.00 0.00 74 1022.8
20260501210131 7 0 0.0 0.0 0.00 0.00 0.00 74 1024.9
20260501210005 8 0 0.0 0.0 0.00 0.00 0.00 73 1023.0
20260501205625 7 0 0.0 0.0 0.00 0.00 0.00 74 1024.8
20260501205506 8 0 0.0 0.0 0.00 0.00 0.00 72 1022.9
20260501205125 7 0 0.0 0.0 0.00 0.00 0.00 74 1024.9
20260501205005 8 0 0.0 0.0 0.00 0.00 0.00 72 1022.9
20260501204626 8 0 0.0 0.0 0.00 0.00 0.00 74 1025.0
20260501204126 8 0 0.0 0.0 0.00 0.00 0.00 73 1024.8
20260501204006 9 0 0.0 0.0 0.00 0.00 0.00 69 1023.1
20260501203625 8 0 0.0 0.0 0.00 0.00 0.00 72 1024.7
20260501203506 9 0 0.0 0.0 0.00 0.00 0.00 69 1022.9
20260501203005 10 0 0.0 0.0 0.00 0.00 0.00 68 1023.0
20260501202625 9 135 0.0 1.6 0.00 0.00 0.00 70 1024.7
20260501202125 9 181 0.0 1.6 0.00 0.00 0.00 70 1024.8
20260501202006 10 0 0.0 0.0 0.00 0.00 0.00 67 1022.9
20260501201625 9 181 0.0 1.6 0.00 0.00 0.00 69 1024.7
20260501201505 10 0 0.0 0.0 0.00 0.00 0.00 67 1022.8
20260501201126 9 181 0.0 1.6 0.00 0.00 0.00 68 1024.6
20260501200506 10 0 0.0 0.0 0.00 0.00 0.00 64 1023.0
20260501200131 10 225 0.0 1.6 0.00 0.00 0.00 65 1024.7
20260501200005 10 0 0.0 0.0 0.00 0.00 0.00 64 1022.9
20260501195626 10 225 0.0 1.6 0.00 0.00 0.00 65 1024.5
20260501195006 11 0 0.0 0.0 0.00 0.00 0.00 62 1022.9
20260501194625 10 0 0.0 0.0 0.00 0.00 0.00 64 1024.6
20260501194505 11 0 0.0 0.0 0.00 0.00 0.00 62 1022.9
20260501194125 10 0 0.0 0.0 0.00 0.00 0.00 63 1024.7
20260501193625 11 225 0.0 1.6 0.00 0.00 0.00 63 1024.7
20260501193506 11 0 0.0 0.0 0.00 0.00 0.00 60 1022.9
20260501193125 11 225 0.0 1.6 0.00 0.00 0.00 61 1024.4
20260501193005 11 0 0.0 0.0 0.00 0.00 0.00 59 1022.9
20260501192625 11 0 0.0 0.0 0.00 0.00 0.00 60 1024.6
20260501192505 12 0 0.0 0.0 0.00 0.00 0.00 57 1023.0
20260501192125 11 0 0.0 0.0 0.00 0.00 0.00 59 1024.7
20260501192006 12 0 0.0 0.0 0.00 0.00 0.00 56 1023.0
20260501191625 11 0 0.0 0.0 0.00 0.00 0.00 57 1024.6
20260501191505 12 0 0.0 0.0 0.00 0.00 0.00 55 1022.9
20260501191125 12 0 0.0 0.0 0.00 0.00 0.00 55 1024.7
20260501190625 12 225 0.0 1.6 0.00 0.00 0.00 54 1024.6
20260501190505 13 0 0.0 0.0 0.00 0.00 0.00 54 1022.9
20260501190131 12 225 0.0 1.6 0.00 0.00 0.00 53 1024.6
20260501190006 13 0 0.0 0.0 0.00 0.00 0.00 52 1022.8
20260501185625 13 225 0.0 1.6 0.00 0.00 0.00 52 1024.5
20260501185505 14 0 0.0 0.0 0.00 0.00 0.00 50 1022.9
20260501185125 13 0 0.0 0.0 0.00 0.00 0.00 49 1024.6
20260501185006 14 0 0.0 0.0 0.00 0.00 0.00 48 1022.8
20260501184625 14 0 0.0 0.0 0.00 0.00 0.00 48 1024.5
20260501184505 15 0 0.0 0.0 0.00 0.00 0.00 46 1022.8
20260501184125 14 0 0.0 0.0 0.00 0.00 0.00 47 1024.7
20260501184005 15 0 0.0 0.0 0.00 0.00 0.00 45 1022.8
20260501183625 15 0 0.0 0.0 0.00 0.00 0.00 45 1024.4
20260501183506 15 0 0.0 0.0 0.00 0.00 0.00 45 1022.8
20260501183125 15 0 0.0 0.0 0.00 0.00 0.00 44 1024.3
20260501183005 16 0 0.0 0.0 0.00 0.00 0.00 43 1022.6
20260501182625 16 0 0.0 0.0 0.00 0.00 0.00 43 1024.3
20260501182505 16 0 0.0 0.0 0.00 0.00 0.00 42 1022.6
20260501182125 16 0 0.0 0.0 0.00 0.00 0.00 42 1024.2
20260501182006 17 1 0.0 1.6 0.00 0.00 0.00 41 1022.6
20260501181505 17 1 1.6 3.2 0.00 0.00 0.00 39 1022.6
20260501181125 17 28 1.6 4.8 0.00 0.00 0.00 39 1024.2
20260501180625 17 14 3.2 6.4 0.00 0.00 0.00 38 1024.2
20260501180505 18 355 3.2 6.4 0.00 0.00 0.00 38 1022.3
20260501180131 17 8 3.2 6.4 0.00 0.00 0.00 38 1024.1
20260501180006 18 345 4.8 6.4 0.00 0.00 0.00 38 1022.3
20260501175625 17 18 4.8 6.4 0.00 0.00 0.00 38 1023.9
20260501175125 18 17 4.8 11.3 0.00 0.00 0.00 38 1024.0
20260501174625 18 19 6.4 11.3 0.00 0.00 0.00 38 1023.9
20260501174505 19 336 6.4 11.3 0.00 0.00 0.00 36 1022.3
20260501174125 18 11 6.4 11.3 0.00 0.00 0.00 38 1023.8
20260501174006 20 329 6.4 11.3 0.00 0.00 0.00 35 1022.3
20260501173625 18 344 4.8 6.4 0.00 0.00 0.00 38 1023.9
20260501173505 20 336 4.8 8.0 0.00 0.00 0.00 35 1022.2
20260501173125 18 337 4.8 8.0 0.00 0.00 0.00 38 1024.0
20260501173005 20 332 4.8 8.0 0.00 0.00 0.00 35 1022.4
20260501172625 18 338 6.4 9.7 0.00 0.00 0.00 38 1023.9
20260501172505 20 332 6.4 9.7 0.00 0.00 0.00 35 1022.2
20260501172125 18 354 8.0 11.3 0.00 0.00 0.00 36 1023.9
20260501172005 20 327 6.4 11.3 0.00 0.00 0.00 35 1022.3
20260501171625 18 1 6.4 11.3 0.00 0.00 0.00 36 1024.0
20260501171509 20 327 6.4 11.3 0.00 0.00 0.00 35 1022.2
20260501171126 19 358 6.4 8.0 0.00 0.00 0.00 36 1023.9
20260501171005 20 326 6.4 8.0 0.00 0.00 0.00 35 1022.2
20260501170626 19 3 6.4 9.7 0.00 0.00 0.00 35 1023.8
20260501170506 20 329 6.4 11.3 0.00 0.00 0.00 34 1022.2
20260501170131 19 340 8.0 14.5 0.00 0.00 0.00 35 1023.7
20260501165625 20 343 9.7 14.5 0.00 0.00 0.00 34 1023.8
20260501165506 20 332 9.7 12.9 0.00 0.00 0.00 34 1022.2
20260501165125 20 9 8.0 12.9 0.00 0.00 0.00 33 1023.9
20260501164625 20 39 9.7 14.5 0.00 0.00 0.00 34 1023.9
20260501164505 21 309 9.7 14.5 0.00 0.00 0.00 34 1022.3
20260501164125 20 30 9.7 14.5 0.00 0.00 0.00 33 1023.7
20260501163625 20 4 8.0 12.9 0.00 0.00 0.00 34 1024.0
20260501163505 21 340 9.7 12.9 0.00 0.00 0.00 34 1022.3
20260501163125 20 354 11.3 17.7 0.00 0.00 0.00 33 1023.9
20260501163005 20 338 12.9 17.7 0.00 0.00 0.00 34 1022.4
20260501162505 20 350 12.9 17.7 0.00 0.00 0.00 34 1022.3
20260501162006 20 341 12.9 17.7 0.00 0.00 0.00 33 1022.2
20260501161625 20 3 14.5 17.7 0.00 0.00 0.00 33 1024.0
20260501161505 20 346 14.5 17.7 0.00 0.00 0.00 33 1022.4
20260501161125 20 326 12.9 17.7 0.00 0.00 0.00 33 1024.2
20260501160505 20 1 12.9 16.1 0.00 0.00 0.00 33 1022.3
20260501160006 20 358 11.3 16.1 0.00 0.00 0.00 33 1022.3
20260501155625 20 350 11.3 17.7 0.00 0.00 0.00 33 1024.0
20260501155505 20 16 12.9 16.1 0.00 0.00 0.00 34 1022.4
20260501155125 20 23 11.3 17.7 0.00 0.00 0.00 33 1023.9
20260501155006 20 13 11.3 16.1 0.00 0.00 0.00 34 1022.4
20260501154626 20 38 11.3 16.1 0.00 0.00 0.00 33 1023.9
20260501154126 20 35 11.3 17.7 0.00 0.00 0.00 33 1024.0
20260501154006 20 10 11.3 17.7 0.00 0.00 0.00 34 1022.4
20260501153625 20 20 11.3 19.3 0.00 0.00 0.00 33 1024.2
20260501153505 20 14 12.9 17.7 0.00 0.00 0.00 34 1022.5
20260501153125 20 350 16.1 22.5 0.00 0.00 0.00 33 1024.0
20260501152625 20 348 17.7 24.1 0.00 0.00 0.00 33 1024.0
20260501152505 20 350 16.1 24.1 0.00 0.00 0.00 34 1022.4
20260501152125 20 358 14.5 24.1 0.00 0.00 0.00 33 1024.0
20260501152006 20 327 12.9 24.1 0.00 0.00 0.00 35 1022.5
20260501151625 20 12 11.3 17.7 0.00 0.00 0.00 34 1024.0
20260501151125 20 333 12.9 20.9 0.00 0.00 0.00 35 1024.3
20260501151005 20 325 12.9 17.7 0.00 0.00 0.00 36 1022.6
20260501150625 20 333 12.9 20.9 0.00 0.00 0.00 34 1024.2
20260501150506 20 310 11.3 17.7 0.00 0.00 0.00 36 1022.6
20260501150131 20 358 12.9 20.9 0.00 0.00 0.00 35 1024.2
20260501150006 20 295 11.3 19.3 0.00 0.00 0.00 36 1022.5